TimeCDT,TemperatureF,Dew PointF,Humidity,Sea Level PressureIn,VisibilityMPH,Wind Direction,Wind SpeedMPH,Gust SpeedMPH,PrecipitationIn,Events,Conditions,WindDirDegrees,DateUTC
12:53 AM,73.0,66.9,81,29.94,10.0,South,3.5,-,N/A,,Overcast,180,2013-08-03 05:53:00
1:53 AM,71.1,66.9,87,29.94,10.0,Calm,Calm,-,N/A,,Clear,0,2013-08-03 06:53:00
2:53 AM,71.1,68.0,90,29.94,10.0,SSE,3.5,-,N/A,,Overcast,160,2013-08-03 07:53:00
3:41 AM,71.6,66.2,83,29.94,10.0,Calm,Calm,-,N/A,Thunderstorm,Mostly Cloudy,0,2013-08-03 08:41:00
3:53 AM,72.0,68.0,87,29.93,9.0,South,6.9,-,0.00,Rain-Thunderstorm,Light Thunderstorms and Rain,190,2013-08-03 08:53:00
4:20 AM,73.4,68.0,83,29.94,10.0,South,9.2,-,0.00,Thunderstorm,Overcast,170,2013-08-03 09:20:00
4:41 AM,71.6,69.8,94,29.93,9.0,SSE,5.8,-,0.00,,Overcast,160,2013-08-03 09:41:00
4:53 AM,72.0,69.1,91,29.92,9.0,Calm,Calm,-,0.00,,Overcast,0,2013-08-03 09:53:00
5:53 AM,73.0,69.1,87,29.92,9.0,South,6.9,-,N/A,,Overcast,170,2013-08-03 10:53:00
6:53 AM,73.0,69.1,87,29.94,7.0,Variable,3.5,-,N/A,Thunderstorm,Thunderstorm,0,2013-08-03 11:53:00
7:49 AM,73.4,71.6,94,29.99,3.0,SW,5.8,-,0.01,Rain,Light Rain,220,2013-08-03 12:49:00
7:53 AM,73.0,71.1,93,29.98,2.0,SW,4.6,-,0.02,Rain,Light Rain,230,2013-08-03 12:53:00
8:00 AM,71.6,71.6,100,29.99,1.2,Variable,4.6,-,0.05,Rain,Light Rain,0,2013-08-03 13:00:00
8:05 AM,73.4,71.6,94,29.99,3.0,Variable,3.5,-,0.05,Rain,Light Rain,0,2013-08-03 13:05:00
8:21 AM,73.4,71.6,94,29.99,6.0,SSW,3.5,-,0.05,,Overcast,200,2013-08-03 13:21:00
8:53 AM,73.0,71.1,93,29.99,4.0,SW,3.5,-,0.06,Rain,Light Rain,220,2013-08-03 13:53:00
9:53 AM,73.0,71.1,93,30.01,9.0,South,5.8,-,0.00,,Overcast,180,2013-08-03 14:53:00
10:53 AM,73.0,71.1,93,30.03,10.0,South,5.8,-,0.00,,Overcast,180,2013-08-03 15:53:00
11:44 AM,73.4,71.6,94,30.04,10.0,SSW,4.6,-,N/A,,Overcast,210,2013-08-03 16:44:00
11:53 AM,75.0,72.0,90,30.04,10.0,SW,6.9,-,N/A,,Overcast,230,2013-08-03 16:53:00
12:33 PM,75.2,71.6,89,30.04,9.0,West,5.8,-,0.00,Rain,Light Rain,280,2013-08-03 17:33:00
12:53 PM,75.9,72.0,87,30.02,10.0,WNW,5.8,-,0.00,,Overcast,290,2013-08-03 17:53:00
1:25 PM,78.8,73.4,83,30.03,10.0,NNW,4.6,-,N/A,,Scattered Clouds,330,2013-08-03 18:25:00
1:38 PM,78.8,73.4,83,30.03,10.0,North,3.5,-,N/A,,Mostly Cloudy,350,2013-08-03 18:38:00
1:53 PM,79.0,73.0,82,30.01,10.0,Variable,3.5,-,N/A,,Mostly Cloudy,0,2013-08-03 18:53:00
2:27 PM,80.6,73.4,79,30.02,10.0,Variable,4.6,-,N/A,,Scattered Clouds,0,2013-08-03 19:27:00
2:53 PM,81.0,72.0,74,30.01,10.0,Calm,Calm,-,N/A,,Mostly Cloudy,0,2013-08-03 19:53:00
3:40 PM,82.4,73.4,74,30.00,6.0,NNW,8.1,-,N/A,,Haze,340,2013-08-03 20:40:00
3:53 PM,82.0,73.0,74,29.99,5.0,North,6.9,-,N/A,,Haze,10,2013-08-03 20:53:00
4:53 PM,82.9,73.0,72,29.98,6.0,North,9.2,-,N/A,,Haze,10,2013-08-03 21:53:00
5:53 PM,81.0,73.0,77,29.98,6.0,NNW,4.6,-,N/A,,Haze,330,2013-08-03 22:53:00
6:53 PM,82.9,72.0,69,29.99,7.0,NW,3.5,-,N/A,,Clear,320,2013-08-03 23:53:00
7:53 PM,78.1,73.0,84,30.01,7.0,Calm,Calm,-,N/A,,Partly Cloudy,0,2013-08-04 00:53:00
8:53 PM,75.0,72.0,90,30.02,7.0,Calm,Calm,-,N/A,,Partly Cloudy,0,2013-08-04 01:53:00
9:53 PM,73.0,72.0,96,30.04,6.0,WSW,3.5,-,N/A,,Partly Cloudy,250,2013-08-04 02:53:00
10:53 PM,73.9,72.0,93,30.06,6.0,West,3.5,-,N/A,,Overcast,260,2013-08-04 03:53:00
11:53 PM,73.9,71.1,91,30.06,7.0,NNW,3.5,-,N/A,,Clear,330,2013-08-04 04:53:00